Dewpoint
76 74 74 73 76 75 72 68 57 61 60 55 56 58 57 63 63 62 61 64 61 66 66 67 66 64 62 62 64 65 65 64 64 55 52 67 72 73 74 74 74 74 75 75 76 76 76 77 77 77 77 77 77 78 78 78 77 77 77 77 78 78 78 78 78 78 78 78 78 77 77 77 77 77 77 77 77 77 77 77 77 77 77 77 76 76 75 75 76 76 76 76 76 76 75 75 75
74 71 74 77 75 73 67 68 60 58 59 55 57 61 61 63 62 60 61 63 64 65 66 66 66 65 62 64 64 66 64 66 67 68 69 71 72 73 74 74 74 74 75 75 76 76 76 76 77 77 77 77 77 77 77 78 77 78 77 77 77 78 78 78 78 78 78 77 77 77 77 76 76 77 77 77 77 77 77 77 77 77 77 77 76 76 75 76 76 76 76 76 76 76 75 76 75
69 74 75 75 74 72 70 66 54 54 52 52 55 60 65 60 60 62 64 65 67 68 67 67 67 65 63 65 63 63 62 67 68 69 69 71 71 73 74 74 74 74 75 75 76 76 76 76 77 78 77 77 77 78 78 77 77 78 77 77 77 78 78 78 78 77 77 77 77 77 76 76 76 77 77 77 77 77 77 77 77 77 77 77 76 76 76 76 77 77 76 75 76 76 76 76 75
69 74 72 72 68 70 61 59 55 52 50 52 54 59 63 62 61 65 66 67 67 68 68 66 64 64 66 62 63 65 65 66 68 69 69 70 71 73 73 73 74 74 75 75 76 76 76 77 78 78 77 77 77 78 78 77 77 77 77 77 77 78 78 78 77 77 76 76 77 76 76 76 76 77 77 77 77 77 76 77 76 77 77 76 77 76 76 76 76 76 76 76 76 76 76 76 75
68 74 73 72 66 61 60 56 55 54 52 54 52 60 63 64 65 66 67 69 69 69 68 64 64 64 65 65 68 62 63 67 68 69 69 71 73 73 73 73 74 74 75 75 75 75 76 77 78 77 77 77 77 78 78 78 78 77 77 77 78 78 78 77 77 77 76 76 76 76 76 76 77 77 76 77 77 77 76 77 76 77 77 76 76 77 77 76 76 76 76 76 76 76 76 76 75
70 72 75 72 66 65 59 56 55 56 56 59 58 59 64 65 66 67 67 69 69 66 67 64 66 63 64 65 70 65 66 65 68 69 70 71 72 72 72 73 73 74 74 74 75 75 75 78 78 78 77 77 77 78 78 78 78 77 77 77 77 78 78 77 77 77 77 76 76 76 76 76 77 77 77 76 76 77 77 77 77 77 77 77 77 77 77 77 76 76 76 76 76 76 76 76 75
71 71 71 70 67 65 55 54 55 56 59 61 59 62 64 66 66 67 67 68 64 68 66 65 64 67 65 66 69 67 67 67 68 69 71 71 72 72 72 72 72 73 74 74 74 75 76 78 78 77 77 77 77 78 78 78 78 78 78 77 78 78 78 77 76 76 76 76 76 76 77 77 77 76 76 76 77 77 77 77 77 77 77 77 77 77 77 76 76 76 76 76 76 76 76 76 75
74 69 69 63 58 58 55 55 56 57 59 63 64 64 65 66 67 67 66 66 63 65 63 65 65 65 65 71 63 67 67 69 69 70 71 71 72 72 72 72 72 73 73 74 74 75 77 78 77 77 77 77 77 77 77 77 77 78 78 78 78 78 78 77 77 76 76 76 76 77 77 76 76 76 76 77 77 77 77 77 77 77 77 76 77 77 77 76 76 76 76 76 76 76 76 76 76
71 69 70 62 55 56 54 55 56 59 61 62 63 68 67 67 68 66 65 67 67 68 65 65 67 63 63 65 66 68 68 69 70 72 71 72 72 72 72 72 72 73 73 73 74 75 77 77 78 78 77 77 77 77 77 77 77 78 77 77 77 77 78 77 77 76 77 76 77 77 76 76 76 76 77 77 77 77 77 77 76 77 76 76 76 77 76 76 76 76 76 76 76 76 76 76 76
69 68 62 59 56 53 53 54 54 56 59 62 62 64 66 66 66 68 67 65 66 67 65 68 65 63 64 64 65 67 67 69 70 70 71 71 71 71 71 72 72 72 72 73 74 75 77 77 78 78 77 77 77 77 77 77 77 77 77 77 77 77 78 77 77 77 77 77 77 77 76 77 76 76 77 77 77 77 77 76 77 77 76 76 76 77 77 76 76 76 76 76 75 75 76 76 76
64 68 67 56 52 52 53 54 57 59 61 62 62 66 67 67 67 66 66 66 68 65 66 69 63 64 66 65 68 70 68 69 69 69 70 70 71 71 71 72 72 72 72 73 74 76 76 76 78 78 78 77 77 77 77 77 77 77 77 77 77 77 77 77 77 77 77 77 77 76 77 77 77 76 76 76 76 76 77 76 76 77 77 77 76 77 77 76 76 76 76 76 75 76 75 75 75
62 59 60 52 49 52 54 55 57 58 61 61 62 65 67 67 66 65 65 63 66 66 66 69 62 68 64 64 64 70 71 68 69 70 70 70 70 71 71 71 71 72 72 73 75 76 76 77 77 78 78 77 78 77 77 77 77 77 77 77 77 77 77 77 77 77 77 77 77 77 77 77 76 76 76 76 76 77 77 77 77 77 77 77 76 76 77 77 76 76 76 76 76 75 75 75 75
62 60 56 49 52 54 56 55 55 59 58 59 61 65 68 66 65 65 65 65 67 65 65 68 66 70 63 65 69 72 70 68 69 69 70 70 70 71 71 72 72 72 72 74 74 76 76 76 77 77 77 78 78 78 77 77 78 77 77 77 77 77 77 77 77 77 77 77 77 77 77 77 77 76 76 76 76 77 77 77 77 76 77 77 77 76 77 76 76 76 76 76 76 76 75 75 75
61 58 55 50 53 56 56 56 56 55 55 59 63 66 68 66 67 68 65 65 66 63 64 67 69 66 63 63 65 67 67 68 69 70 70 70 70 71 71 72 73 72 72 73 74 75 76 76 77 77 77 77 77 77 77 77 77 77 77 77 77 77 77 78 77 77 77 77 77 77 77 77 77 76 76 76 76 77 77 77 77 77 77 77 77 77 76 76 76 76 76 76 76 76 76 75 75
58 57 48 48 48 51 54 52 54 55 54 61 64 65 66 67 68 67 67 63 62 66 67 67 66 65 60 63 61 66 66 68 69 70 70 70 70 71 71 73 73 72 71 72 74 75 76 76 77 77 77 77 77 76 76 77 77 77 77 77 77 77 77 78 77 77 77 77 77 77 77 77 77 77 77 76 77 77 77 77 77 77 77 76 76 76 76 76 76 76 76 76 76 76 75 76 75
57 50 51 48 47 49 50 54 57 56 54 62 64 66 66 67 68 67 68 66 64 69 67 63 67 65 64 64 64 65 66 68 68 68 69 70 70 71 72 72 72 71 70 72 73 74 75 76 76 77 77 77 77 76 76 76 77 77 77 77 77 77 77 77 77 77 77 77 77 77 77 77 77 76 77 76 77 77 77 77 77 77 77 77 77 76 76 76 76 76 76 76 76 75 76 75 76
51 51 46 46 46 48 50 53 55 49 56 61 64 64 62 62 65 67 68 63 64 63 69 68 65 66 65 68 63 65 67 69 70 68 69 69 69 71 72 72 72 71 71 71 73 74 75 75 76 76 77 77 77 76 76 76 77 77 77 77 77 77 77 76 77 77 77 76 77 76 77 76 77 76 76 76 76 76 76 77 77 77 76 77 76 76 76 76 76 76 76 76 76 76 76 76 76
39 47 45 45 47 48 50 51 54 55 57 58 61 63 63 59 63 64 66 65 64 65 65 67 67 69 69 64 64 65 67 68 69 69 69 69 70 70 71 71 72 72 71 71 73 74 74 75 76 76 76 76 76 76 77 77 77 77 76 76 76 77 77 76 77 76 77 76 77 76 76 77 76 76 76 78 76 77 76 77 77 76 76 76 76 76 76 76 76 76 76 76 76 76 76 76 76
39 46 46 44 47 49 53 53 57 56 56 59 61 63 64 61 61 63 62 62 63 62 65 67 65 66 63 63 64 65 67 67 68 69 68 68 69 70 70 71 71 72 72 72 73 73 74 75 75 76 76 76 76 76 76 76 76 76 76 76 76 77 77 77 76 76 76 75 76 75 76 75 75 76 76 77 77 77 77 76 76 76 76 76 76 76 76 76 76 76 76 76 76 76 76 74 74
38 44 44 45 48 51 55 57 58 59 60 60 61 61 64 62 64 61 62 62 63 62 62 64 64 64 63 63 64 65 66 67 70 69 68 68 69 70 70 70 70 71 72 72 73 74 74 75 75 75 76 76 76 76 76 76 76 75 76 75 76 76 76 76 74 75 75 75 75 75 75 76 76 76 79 78 78 77 77 77 76 76 76 76 76 76 76 76 76 76 76 76 77 77 75 74 74
41 44 45 47 50 52 55 59 58 60 59 60 60 62 62 62 62 61 64 62 63 63 65 63 63 63 61 61 64 64 65 66 68 68 67 68 69 69 70 71 70 71 72 72 73 73 74 74 75 75 75 76 75 75 76 76 76 75 75 75 75 75 75 75 74 74 75 75 75 75 75 75 76 76 76 77 76 76 75 75 75 75 75 75 76 74 75 75 75 74 75 77 74 75 74 74 74
41 43 46 48 50 49 53 55 59 59 61 61 61 60 59 62 61 61 62 61 61 63 65 64 65 64 61 60 62 64 66 66 67 68 68 66 69 68 69 71 73 71 71 71 72 73 73 74 74 74 75 75 75 75 75 76 76 75 75 75 75 75 75 74 74 74 74 74 74 75 75 75 75 75 76 76 75 76 75 75 75 74 74 74 76 74 74 74 74 74 74 74 75 75 75 74 72
42 44 47 48 49 49 52 56 61 60 59 59 59 60 59 56 58 61 60 62 64 64 65 64 64 65 67 66 63 64 64 65 67 68 65 67 68 69 71 72 72 70 70 71 71 72 73 74 74 74 74 75 75 75 75 76 76 76 75 75 75 74 74 74 74 74 74 74 75 75 75 75 74 74 74 75 75 75 75 75 75 74 74 74 75 75 74 74 74 74 74 74 74 74 74 73 72
42 43 46 46 48 49 53 57 60 56 56 58 60 61 56 56 54 54 59 60 62 64 64 64 65 66 64 64 63 64 65 66 67 68 67 69 68 69 70 70 71 70 70 70 71 72 73 73 74 74 74 74 75 75 75 76 75 75 75 76 75 75 74 74 74 74 73 73 74 75 76 75 74 74 73 73 74 74 74 74 75 75 75 75 75 75 74 74 74 74 74 74 74 74 73 72 71
41 43 44 43 47 51 55 57 56 59 59 60 58 55 55 55 52 57 59 60 61 62 64 63 64 64 63 63 64 64 64 65 66 67 69 68 70 71 69 69 71 73 71 70 70 72 72 72 73 73 74 74 74 75 75 75 75 75 75 76 75 75 74 74 74 74 73 73 74 75 75 74 74 74 73 73 73 73 73 73 74 74 75 74 74 74 74 74 73 73 74 74 73 73 73 72 71
33 41 41 45 50 53 55 54 56 59 61 61 56 56 58 58 54 57 57 59 61 63 62 63 63 62 63 62 63 63 64 64 65 67 67 68 68 68 70 69 71 70 71 71 70 71 72 72 72 73 73 74 74 74 75 75 74 74 74 75 75 75 73 73 73 73 74 74 74 75 75 75 74 74 74 74 73 73 73 73 73 73 73 74 74 73 74 73 73 73 73 73 73 72 72 71 73
22 38 41 47 52 51 55 50 55 60 59 60 56 57 55 56 53 52 56 59 61 62 61 61 62 62 63 62 63 63 62 64 65 66 67 67 68 68 68 70 70 70 72 71 71 71 72 72 72 73 73 75 74 74 74 74 74 74 74 74 74 74 74 73 73 73 74 74 74 75 75 75 75 75 74 74 73 73 72 72 73 73 72 73 73 73 73 73 73 74 74 73 72 72 72 71 72
21 32 43 49 50 51 56 54 56 59 58 61 56 55 58 59 56 51 52 57 61 60 61 61 60 61 62 62 62 64 64 64 65 66 65 67 67 67 67 68 69 69 70 70 71 72 72 72 75 75 75 75 74 74 74 73 73 73 74 74 74 73 74 73 73 73 74 74 74 75 75 75 75 74 74 74 73 72 72 72 72 72 72 72 73 72 72 73 72 73 75 74 73 73 72 72 72
20 40 41 48 54 54 58 56 59 58 57 60 59 53 53 54 52 53 53 58 60 60 60 61 60 61 62 61 62 63 63 64 64 64 66 67 67 67 66 67 68 68 69 69 70 72 71 72 73 75 74 75 75 75 74 73 73 73 73 73 73 73 73 73 73 73 74 74 75 75 75 74 75 74 74 74 74 73 72 72 72 72 72 72 73 72 72 72 72 73 74 75 74 72 72 73 73
19 26 39 45 52 52 55 59 59 57 56 59 53 43 47 52 55 55 53 58 59 59 59 60 60 60 61 61 62 62 63 64 64 64 66 67 68 68 66 67 69 68 69 70 70 71 71 72 74 74 74 74 75 76 76 75 75 75 74 74 74 74 74 73 73 74 74 74 74 75 75 75 75 74 74 74 74 73 72 72 72 72 72 72 72 72 72 72 72 73 73 73 74 73 71 71 72
15 21 36 42 44 46 51 55 60 50 58 57 52 43 43 52 55 57 56 59 59 59 59 60 60 61 61 61 62 63 64 64 64 65 67 67 68 68 68 69 68 68 72 70 69 70 71 71 72 72 74 73 74 74 75 74 75 75 76 75 75 75 75 75 74 75 74 74 74 74 75 74 74 74 74 74 74 73 72 72 72 72 73 73 73 72 72 72 72 72 73 73 72 72 72 72 71
24 18 26 35 38 40 46 52 56 44 55 60 46 43 43 48 52 56 58 58 57 56 57 59 60 60 61 61 64 64 65 67 67 67 68 68 68 68 69 69 68 68 72 70 69 69 70 70 74 71 72 73 73 73 73 74 74 75 75 76 75 75 75 75 75 75 75 74 74 74 74 75 74 74 73 73 73 73 73 72 72 72 73 74 74 73 73 72 72 72 73 72 71 71 71 71 71
19 17 24 36 36 38 43 46 53 53 56 60 49 39 48 48 52 55 57 57 54 54 58 59 59 59 60 61 62 64 66 67 69 69 70 69 68 68 69 71 70 70 72 72 71 70 69 71 73 73 72 72 73 72 74 74 74 74 74 75 75 74 75 75 75 75 75 75 74 74 74 75 75 74 73 73 73 73 73 73 73 73 73 73 73 73 73 73 73 72 72 73 72 71 70 70 70
17 16 26 34 35 39 39 43 50 56 53 49 53 42 43 47 50 53 55 54 50 54 57 58 59 59 59 60 62 64 64 65 66 67 69 69 68 69 71 73 71 71 71 72 73 69 71 71 72 74 72 72 73 73 73 74 74 74 74 74 75 74 74 75 75 75 75 75 74 74 74 74 75 74 74 73 73 73 73 73 73 73 73 73 73 73 73 73 73 73 72 72 72 71 70 70 69
7 17 18 30 36 37 38 36 41 53 55 47 50 46 44 47 49 52 52 52 49 53 56 57 57 56 56 60 63 63 64 64 64 65 67 68 67 67 71 72 71 72 72 72 72 70 71 72 72 73 72 72 73 73 74 74 74 74 74 74 74 74 74 74 74 74 74 74 74 74 74 74 75 74 74 73 73 73 73 73 73 73 73 74 73 73 73 73 73 72 71 71 72 71 71 70 70
5 7 8 24 33 34 35 34 42 48 49 46 45 43 47 47 49 50 51 51 50 52 54 54 54 55 60 61 63 63 64 63 64 66 66 68 68 68 69 72 72 72 71 72 71 72 71 71 72 73 74 72 72 72 73 73 73 73 73 74 73 74 73 74 74 74 74 74 74 74 74 74 75 75 74 73 73 73 73 74 73 73 73 73 72 73 72 72 72 71 71 71 71 71 72 71 70
9 5 4 9 24 29 34 36 41 51 46 41 42 46 47 47 47 49 52 51 52 51 52 54 55 60 62 62 63 63 63 63 66 67 68 67 69 68 68 71 70 70 71 70 69 71 71 71 72 71 72 73 71 71 72 71 72 72 72 73 72 73 73 73 73 73 73 74 74 74 74 74 74 74 74 73 72 73 73 73 73 74 74 73 73 72 71 71 71 71 71 72 71 70 70 71 70
6 6 5 11 21 27 29 32 44 52 40 39 44 45 46 48 49 51 53 50 50 50 52 53 57 61 62 63 63 63 63 64 66 65 67 68 68 69 68 68 70 69 70 70 70 71 72 71 71 72 73 73 72 72 73 72 71 71 71 72 72 72 72 73 72 73 73 73 73 73 74 75 74 74 75 73 73 72 72 72 72 73 74 73 73 72 71 72 72 72 71 71 72 71 70 70 70
4 4 9 9 16 25 27 43 44 49 43 43 44 46 49 51 52 54 56 57 58 55 53 54 58 60 61 61 61 62 61 62 63 65 67 67 69 68 67 68 69 69 70 70 71 72 72 73 72 72 74 73 73 73 74 73 72 72 72 73 72 73 73 73 72 73 74 74 73 73 74 74 74 74 74 74 73 72 72 72 72 73 73 73 72 72 72 72 72 72 71 71 70 70 70 70 70
4 2 2 2 21 18 20 35 43 47 40 44 48 49 51 53 54 56 58 61 61 62 58 57 59 58 58 58 58 59 63 62 63 65 68 70 68 67 67 67 68 69 70 71 71 71 72 73 72 73 73 73 73 74 74 73 73 73 72 73 74 74 73 74 73 73 74 74 73 73 73 73 73 74 74 74 74 73 72 72 73 73 72 73 73 72 71 71 71 72 71 71 70 69 69 69 70
4 7 4 3 5 9 19 30 38 48 50 50 46 47 48 50 50 53 56 58 58 58 58 58 59 60 61 61 62 63 62 62 62 63 64 66 68 67 67 67 68 68 69 70 71 71 71 72 73 73 72 73 73 75 75 73 74 73 74 74 74 73 74 73 72 72 72 74 74 73 73 73 73 73 74 74 74 73 73 73 73 73 72 72 72 72 71 71 71 71 71 71 70 70 69 69 69
-0 2 4 2 3 11 9 24 35 39 42 44 41 40 43 47 51 52 54 56 56 59 56 57 59 60 60 62 64 64 64 66 63 65 65 65 67 67 67 67 67 68 68 69 70 72 72 73 73 73 72 73 73 74 74 73 73 72 72 72 71 71 71 72 71 71 72 72 73 74 74 74 73 74 74 74 74 74 73 73 73 72 72 72 72 72 71 71 71 71 71 71 71 70 70 69 68
-0 1 8 8 8 8 3 13 20 31 34 40 38 39 41 47 49 51 54 54 54 56 57 57 59 60 60 62 63 63 63 61 63 64 66 65 66 67 67 67 67 67 68 70 71 71 72 72 72 72 72 72 73 73 73 74 73 73 72 72 72 71 71 72 72 73 73 73 73 73 74 74 74 74 74 73 73 73 73 73 73 73 72 72 72 71 71 70 71 71 71 71 71 71 70 69 68
-0 2 8 10 7 8 6 4 1 20 26 34 43 46 43 43 45 52 53 52 52 52 53 55 57 58 59 61 62 63 63 62 62 64 65 66 66 66 66 66 67 68 69 71 70 71 71 71 71 71 72 73 73 73 73 73 73 72 72 71 72 72 72 72 72 72 74 74 73 73 73 73 73 74 74 73 73 73 74 73 73 72 72 72 72 71 71 71 72 71 72 72 71 71 70 69 69
6 8 9 5 5 7 7 3 2 7 7 34 45 44 42 43 47 53 53 48 49 49 51 52 56 57 59 61 62 63 62 62 62 64 65 66 67 67 68 66 67 67 70 71 71 71 71 71 71 71 72 73 72 73 73 73 74 73 72 72 72 73 72 73 73 73 73 74 72 73 73 73 73 73 73 73 73 74 75 73 72 72 72 71 72 72 72 72 71 71 71 71 71 71 70 70 69
6 10 10 8 8 10 10 6 11 19 13 39 43 42 43 43 49 50 50 49 49 50 51 52 56 57 59 62 63 64 65 63 63 64 65 66 67 68 69 69 68 69 71 72 72 72 72 71 71 72 71 72 72 73 73 72 73 73 72 72 72 72 73 73 72 72 71 72 72 72 72 73 73 73 73 73 73 74 74 74 73 72 72 72 73 72 72 72 72 71 71 70 71 70 70 70 70
9 4 6 8 10 16 24 20 20 21 13 23 39 40 41 40 43 46 47 47 50 49 52 53 55 54 56 59 63 64 63 64 64 65 65 66 66 66 67 68 69 70 70 71 71 71 71 71 72 72 72 72 73 72 72 72 72 72 71 71 72 71 71 71 71 71 71 70 70 71 72 72 73 73 74 74 73 73 73 74 73 73 73 73 73 72 72 72 71 72 71 71 71 71 70 70 70
2 5 10 7 9 30 35 27 33 11 17 28 35 36 37 36 39 44 46 50 49 50 49 53 52 55 58 60 62 63 64 64 65 64 64 64 65 66 66 66 67 68 70 70 69 70 71 71 71 70 71 72 72 72 72 71 71 71 70 70 70 70 71 70 70 71 72 71 71 71 72 72 72 72 73 73 73 73 73 73 73 74 74 72 72 73 72 71 72 72 70 70 70 70 71 71 69
3 0 7 6 16 19 14 26 11 16 21 33 35 37 38 39 41 43 44 46 47 51 52 51 53 56 58 59 61 62 63 63 64 64 65 65 65 65 66 66 66 67 68 69 69 69 70 71 71 70 70 71 71 71 71 71 71 70 70 69 70 70 70 70 71 72 72 72 72 72 72 72 72 72 72 72 72 73 74 73 73 73 73 72 72 72 72 72 72 72 71 71 71 70 69 70 70
6 7 20 14 14 14 13 19 23 29 30 32 35 37 36 39 39 46 46 48 50 52 53 52 56 57 58 59 59 61 62 62 63 64 65 65 66 67 67 67 67 67 67 68 68 69 70 69 69 69 69 70 70 70 69 70 70 70 70 71 71 70 71 71 71 72 72 72 72 72 72 72 72 72 72 72 73 73 74 73 72 72 72 73 73 73 72 72 72 72 72 72 71 70 69 69 70
8 9 9 16 13 14 13 16 15 25 29 30 38 32 32 35 38 47 48 51 54 55 56 56 56 57 58 58 59 60 61 62 64 63 64 64 66 66 67 68 67 66 67 67 67 67 68 67 68 67 68 68 68 68 68 68 70 71 72 72 71 71 71 72 73 73 73 73 73 72 72 72 72 72 73 73 74 74 74 72 71 71 72 72 73 73 73 73 73 73 73 72 71 70 70 69 69
11 11 15 14 14 25 11 18 20 26 31 32 35 35 38 37 45 48 51 53 54 55 55 57 57 58 59 59 59 59 60 61 63 65 65 65 65 66 68 68 67 67 67 68 67 67 67 67 68 68 68 69 69 69 68 68 69 71 71 72 72 73 74 74 74 74 74 73 73 73 73 73 73 73 73 73 73 74 72 71 71 72 72 73 73 73 73 73 73 73 72 72 71 71 70 69 69
18 12 14 12 15 19 27 32 30 32 32 32 38 36 40 44 45 46 51 53 54 54 55 56 58 59 59 60 60 60 60 63 65 66 66 66 66 66 67 68 68 68 68 68 68 68 67 68 68 68 68 69 70 70 69 69 68 70 71 71 72 72 73 73 73 73 74 74 73 73 73 73 73 73 73 74 73 74 72 71 70 71 71 72 72 72 73 73 73 73 72 71 71 71 71 70 70
11 9 9 15 18 16 17 17 29 34 32 34 38 35 38 39 39 45 51 52 54 55 55 58 62 63 63 63 63 63 63 64 65 66 66 66 66 66 66 67 67 67 67 67 68 68 68 68 68 68 68 68 70 71 70 70 69 70 71 72 72 72 73 73 73 73 73 74 73 73 73 72 73 73 74 74 73 72 74 73 71 72 72 72 73 73 73 73 73 73 72 72 71 71 71 71 71
14 12 14 19 21 21 27 24 21 25 32 33 39 43 44 39 42 50 54 56 59 59 59 62 63 64 64 64 64 64 64 64 64 64 65 65 65 66 66 66 67 67 67 68 68 68 68 69 68 68 68 69 70 71 71 71 71 70 71 72 72 71 72 73 74 74 73 73 73 73 73 73 73 73 74 74 74 73 73 74 73 72 72 72 73 72 72 72 73 73 72 72 71 72 71 70 70
28 25 24 24 22 25 28 24 23 28 30 33 33 41 38 49 49 52 56 58 59 60 61 63 64 64 64 64 64 64 63 63 64 64 65 65 65 66 66 66 67 67 68 68 68 69 69 70 69 68 68 69 69 70 71 70 71 70 70 71 72 72 72 73 74 73 73 73 73 73 72 72 72 73 73 73 73 73 73 73 73 73 73 72 72 72 71 71 72 72 72 72 71 71 70 70 70
24 23 24 24 25 25 29 38 24 26 30 33 33 32 40 49 54 55 57 59 60 61 62 63 63 63 64 64 64 64 64 63 63 64 64 65 65 66 66 66 67 68 68 68 68 68 68 69 69 69 68 67 68 69 70 70 71 70 70 71 72 73 73 73 73 73 73 73 73 74 73 72 72 72 72 72 72 72 72 73 73 73 73 72 72 72 72 72 72 72 72 71 71 71 70 70 70
25 25 28 24 22 24 24 25 31 29 35 32 31 32 43 51 60 57 58 59 60 61 62 63 63 63 63 63 63 64 64 64 64 64 64 65 65 66 66 66 66 66 67 67 67 69 68 68 68 68 68 68 68 68 69 70 70 70 70 70 69 70 71 71 70 72 72 73 72 72 73 73 72 71 71 72 72 71 72 72 72 73 73 73 72 72 72 73 73 72 72 72 71 71 70 70 71